Kezdőlap
METAR-TAF:

METAR-TAF

Repülőterek :

Békéscsabai repülőtér

Békéscsaba, Magyarország

földrajzi szélesség: 46-41-00N, földrajzi hosszúság: 021-09-45E, magasság: 86 m

Jelenlegi meteorológiai megfigyelések

A jelentés 2 órával és 18 perccel ezelõtt készült, 17:45 UTC
Szélcsend
Hőmérséklet 15°C
Páratartalom 82%
Légköri nyomás 1021 hPa
Látótávolság 10 km, vagy több
felhőtlen 1500 m magasságban, és nincs gomolyfelhõ

METAR: LHBC 201745Z 00000KT CAVOK 15/12 Q1021

Idő: 22:03 (20:03 UTC)


TAF: hiányzik

Meteorológiai megfigyelések és előrejelzések több, mint 4000 repülőtéren (METAR és TAF jelentéseket).

A térképen piros és sárga pontok jelzik az elérhető meteorológiai állomásokat.

Mozgassa az egeret a pont fölött, hogy megjelenjen az állomás neve.

Azután kattintson az időjárási megfigyelések és előrejelzések megtekintéséhez.

A térkép megváltoztatása: kattintson a fekete keresztel jelölt zöld gombra ráközelítéshez, a vonallal jelölt zöld gombra távolításhoz, vagy a zöld nyilakra a szomszédos térképek eléréséhez.


METAR-TAF: